Location: D�derode
(51.8092°N, 10.1065°E)
Time: 05:44:32
(UTC+00:00)

Cosmos 1869 Rocket - Pass Details

Date: 20 April 2021
Orbit: 604 x 634 km, 82.5° (Epoch: 11 May)

Event Time Altitude Azimuth Distance (km) Brightness Sun altitude
Rises 23:55:26 0° 349° (N) 2,902 8.1 -26.2°
Reaches altitude 10° 23:57:40 10° 350° (N) 1,987 7.0 -26.1°
Enters shadow 00:01:29 66° 353° (N) 672 3.8 -26.0°
